FW4231 Weather Reports


Display with metric or nautical units.
time (UTC)temp
F
wind
direction
speed
MPH
gust
MPH
rain 1hr
in
rain 24hr
in
rain mn
in
humidity
%
barometer
mb
20200401044123 50 203 0.0 0.0 0.00 0.01 0.01 90 989.1
20200401043122 50 225 0.0 0.0 0.00 0.01 0.01 90 989.2
20200401042123 50 158 0.0 0.0 0.00 0.01 0.01 89 989.5
20200401041123 50 225 0.0 0.0 0.00 0.01 0.01 89 989.3
20200401040126 51 203 0.0 0.0 0.00 0.01 0.01 89 989.3
20200401035123 51 203 0.0 0.0 0.00 0.01 0.01 90 989.3
20200401034126 51 202 0.0 2.0 0.00 0.01 0.01 90 989.1
20200401033123 52 225 0.0 0.0 0.00 0.01 0.01 89 989.3
20200401032123 52 158 0.0 0.0 0.00 0.01 0.01 88 989.3
20200401031123 52 225 0.0 0.0 0.00 0.01 0.01 88 989.1
20200401030123 52 203 0.0 0.0 0.00 0.01 0.01 87 989.1
20200401025126 53 203 0.0 0.0 0.00 0.01 0.01 86 989.0
20200401024123 53 203 0.0 0.0 0.00 0.01 0.01 86 988.8
20200401023126 53 203 0.0 0.0 0.00 0.01 0.01 86 988.9
20200401022123 54 203 0.0 0.0 0.00 0.01 0.01 85 988.7
20200401021123 55 225 0.0 0.0 0.00 0.01 0.01 85 988.6
20200401020124 55 203 0.0 0.0 0.00 0.01 0.01 84 988.5
20200401015124 55 180 0.0 0.0 0.00 0.01 0.01 84 988.5
20200401014125 56 203 0.0 0.0 0.00 0.01 0.01 81 988.2
20200401013124 57 225 0.0 0.0 0.00 0.01 0.01 81 988.3
20200401012126 58 225 0.0 0.0 0.00 0.01 0.01 79 988.2
20200401011124 59 180 0.0 0.0 0.00 0.02 0.01 77 988.1
20200401010124 60 180 0.0 0.0 0.00 0.02 0.01 73 988.1
20200401005124 62 180 0.0 0.0 0.00 0.02 0.01 70 987.9
20200401004125 64 113 0.0 0.0 0.00 0.02 0.01 68 988.0
20200401003125 65 180 0.0 0.0 0.00 0.02 0.01 65 988.1
20200401002124 66 23 0.0 0.0 0.00 0.02 0.01 63 988.2
20200401001126 67 90 0.0 0.0 0.00 0.02 0.01 61 988.2
20200401000124 68 113 0.0 0.0 0.00 0.02 0.01 59 988.3
20200331235124 67 270 0.0 1.0 0.00 0.02 0.01 62 988.3
20200331234124 66 86 1.0 2.0 0.00 0.02 0.01 61 988.3
20200331233124 68 77 0.0 2.0 0.00 0.03 0.01 58 988.3
20200331232126 68 81 1.0 3.0 0.00 0.03 0.01 60 988.2
20200331231124 69 56 1.0 3.0 0.00 0.03 0.01 57 988.2
20200331230126 69 80 1.0 3.0 0.00 0.03 0.01 58 988.2
20200331225124 69 255 1.0 3.0 0.00 0.03 0.01 57 988.2
20200331224126 69 82 1.0 4.0 0.00 0.04 0.01 58 988.4
20200331223124 69 119 1.0 3.0 0.00 0.04 0.01 56 988.3
20200331222124 70 73 1.0 3.0 0.00 0.05 0.01 58 988.4
20200331221124 70 82 2.0 3.0 0.00 0.05 0.01 59 988.5
20200331220124 69 99 2.0 4.0 0.00 0.06 0.01 58 988.5
20200331215123 70 86 2.0 4.0 0.00 0.06 0.01 56 988.6
20200331214123 70 96 1.0 3.0 0.00 0.07 0.01 56 988.7
20200331213124 71 87 2.0 5.0 0.00 0.07 0.01 57 988.7
20200331212123 71 73 2.0 3.0 0.00 0.10 0.01 56 988.9
20200331211123 70 50 1.0 3.0 0.00 0.11 0.01 59 988.7
20200331210124 71 317 2.0 5.0 0.00 0.12 0.01 57 988.9
20200331205124 71 95 2.0 3.0 0.00 0.14 0.01 59 988.9
20200331204127 70 101 2.0 3.0 0.00 0.17 0.01 58 989.1
20200331203123 69 60 2.0 4.0 0.00 0.21 0.01 58 989.3
20200331202125 70 71 2.0 3.0 0.00 0.23 0.01 62 989.5
20200331201123 69 81 2.0 4.0 0.00 0.23 0.01 65 989.6
20200331200123 70 142 2.0 3.0 0.00 0.23 0.01 62 989.6
20200331195123 68 96 2.0 3.0 0.00 0.23 0.01 65 989.9
20200331194123 67 55 2.0 5.0 0.00 0.23 0.01 64 990.1
20200331193123 68 68 2.0 4.0 0.00 0.23 0.01 64 990.3
20200331192123 67 57 2.0 3.0 0.00 0.23 0.01 66 990.5
20200331191126 65 87 2.0 4.0 0.00 0.23 0.01 68 990.5
20200331190123 64 90 1.0 3.0 0.00 0.23 0.01 73 990.5
20200331185123 63 66 1.0 4.0 0.00 0.23 0.01 74 990.7
20200331184126 64 348 1.0 3.0 0.00 0.23 0.01 73 990.9
20200331183123 65 101 2.0 4.0 0.00 0.23 0.01 70 990.8
20200331182126 64 54 2.0 3.0 0.00 0.23 0.01 73 990.9
20200331181123 63 72 1.0 3.0 0.00 0.24 0.01 76 990.9
20200331180125 62 67 2.0 4.0 0.00 0.24 0.01 74 990.9
20200331175124 63 92 2.0 4.0 0.00 0.24 0.01 73 990.8
20200331174124 63 81 2.0 3.0 0.00 0.24 0.01 76 990.9
20200331173123 61 108 2.0 3.0 0.00 0.24 0.01 79 991.1
20200331172123 60 59 1.0 3.0 0.00 0.24 0.01 81 991.2
20200331171123 59 88 1.0 4.0 0.00 0.24 0.01 84 991.3
20200331170123 59 82 1.0 4.0 0.00 0.24 0.01 84 991.3
20200331165124 59 63 2.0 4.0 0.00 0.24 0.01 82 991.4
20200331164123 58 50 1.0 3.0 0.00 0.24 0.01 85 991.3
20200331163123 59 55 1.0 3.0 0.00 0.24 0.01 87 991.4
20200331162124 59 93 2.0 4.0 0.00 0.24 0.01 84 991.4
20200331161124 58 70 2.0 4.0 0.00 0.24 0.01 86 991.3
20200331160123 57 63 1.0 3.0 0.00 0.24 0.01 88 991.3
20200331155123 57 80 2.0 4.0 0.00 0.24 0.01 88 991.4
20200331154123 56 84 1.0 3.0 0.00 0.24 0.01 87 991.2
20200331153124 56 45 2.0 4.0 0.00 0.24 0.01 88 991.1
20200331152129 57 52 2.0 4.0 0.00 0.24 0.01 87 990.9
20200331151123 57 73 2.0 4.0 0.00 0.24 0.01 88 990.7
20200331150123 56 76 2.0 4.0 0.00 0.24 0.01 89 990.7
20200331145123 56 30 2.0 4.0 0.00 0.24 0.01 90 990.4
20200331144124 55 55 2.0 3.0 0.00 0.24 0.01 91 990.2
20200331143123 55 41 2.0 4.0 0.00 0.24 0.01 93 990.3
20200331142123 54 42 2.0 5.0 0.00 0.24 0.01 94 990.2
20200331141123 54 81 2.0 4.0 0.00 0.24 0.01 96 990.1
20200331140123 53 63 1.0 4.0 0.00 0.24 0.01 96 990.1
20200331135123 53 82 1.0 4.0 0.00 0.24 0.01 96 990.0
20200331134123 53 69 1.0 4.0 0.00 0.24 0.01 97 989.9
20200331133123 52 101 1.0 3.0 0.00 0.24 0.01 98 989.9
20200331132123 52 210 2.0 4.0 0.00 0.24 0.01 98 989.9
20200331131122 52 52 1.0 3.0 0.00 0.24 0.01 98 989.6
20200331130123 52 316 1.0 2.0 0.00 0.24 0.01 98 989.6
20200331125123 51 212 0.0 2.0 0.00 0.24 0.01 98 989.7
20200331124123 51 288 0.0 3.0 0.00 0.24 0.01 98 989.4
20200331123123 51 360 0.0 3.0 0.00 0.24 0.01 98 989.1
20200331122122 51 183 1.0 3.0 0.01 0.24 0.01 98 989.0
20200331121123 51 137 1.0 4.0 0.01 0.24 0.01 97 989.0
20200331120124 50 333 0.0 2.0 0.01 0.24 0.01 97 989.0
20200331115122 50 248 0.0 0.0 0.01 0.24 0.01 97 988.7
20200331114122 50 113 0.0 0.0 0.01 0.24 0.01 97 988.3
20200331113122 51 225 0.0 0.0 0.01 0.24 0.01 98 988.4
20200331112122 51 150 0.0 2.0 0.00 0.23 0.00 98 988.3
20200331111122 51 131 1.0 3.0 0.00 0.23 0.00 98 988.3
20200331110123 52 279 1.0 3.0 0.00 0.23 0.00 98 988.3
20200331105123 52 31 1.0 3.0 0.00 0.23 0.00 98 988.1
20200331104123 52 48 1.0 4.0 0.00 0.23 0.00 98 988.0
20200331103123 52 50 2.0 6.0 0.00 0.23 0.00 98 988.1
20200331102122 53 116 2.0 4.0 0.00 0.23 0.00 98 987.8
20200331101123 53 130 2.0 5.0 0.00 0.23 0.00 98 987.6
20200331100123 53 171 2.0 3.0 0.00 0.23 0.00 98 987.6
20200331095123 53 134 2.0 4.0 0.00 0.23 0.00 98 987.1
20200331094123 53 346 1.0 5.0 0.00 0.23 0.00 98 987.1
20200331093123 53 66 2.0 3.0 0.00 0.23 0.00 98 986.9
20200331092123 53 263 1.0 4.0 0.00 0.23 0.00 98 986.8
20200331091123 53 201 1.0 2.0 0.00 0.23 0.00 98 986.5
20200331090123 53 170 2.0 3.0 0.00 0.23 0.00 98 986.5
20200331085123 53 319 1.0 3.0 0.00 0.23 0.00 98 986.4
20200331084123 53 281 0.0 1.0 0.00 0.23 0.00 98 986.0
20200331083123 53 90 0.0 0.0 0.00 0.23 0.00 98 985.9
20200331082123 53 180 0.0 2.0 0.00 0.23 0.00 98 985.4
20200331081123 53 113 0.0 2.0 0.00 0.23 0.00 98 985.8
20200331080123 53 350 1.0 3.0 0.00 0.23 0.00 98 985.8
20200331075127 53 131 0.0 2.0 0.00 0.23 0.00 98 985.8
20200331074126 53 248 0.0 0.0 0.00 0.23 0.00 98 985.9
20200331073127 53 109 0.0 3.0 0.00 0.23 0.00 98 985.8
20200331072126 53 90 1.0 3.0 0.00 0.23 0.00 98 986.3
20200331071127 53 173 0.0 3.0 0.00 0.23 0.00 98 986.2
20200331070126 53 277 0.0 2.0 0.00 0.23 0.00 97 986.2
20200331065126 53 161 0.0 2.0 0.00 0.23 0.00 97 985.8
20200331064126 53 102 0.0 1.0 0.00 0.23 0.00 97 984.9
20200331063126 53 202 0.0 1.0 0.00 0.23 0.00 97 984.9
20200331062127 53 205 0.0 3.0 0.00 0.23 0.00 97 985.0
20200331061126 53 225 0.0 1.0 0.00 0.23 0.00 97 985.1
20200331060127 53 82 0.0 2.0 0.00 0.23 0.00 97 985.8
20200331054126 53 122 0.0 1.0 0.00 0.23 0.00 97 985.0
20200331053126 53 50 1.0 2.0 0.00 0.23 0.00 97 984.9
20200331052126 53 69 0.0 2.0 0.00 0.23 0.00 97 985.4
20200331051127 53 180 0.0 1.0 0.00 0.23 0.00 97 985.3
20200331050125 53 292 0.0 1.0 0.00 0.23 0.00 97 985.3
20200331045126 53 113 0.0 0.0 0.00 0.23 0.23 97 985.3